Regional Weather Roundup
Issued by NWS

Home | Current Version | Previous Version | Graphics & Text | Print | Product List | Glossary On
Versions: 1 2 3 4 5 6 7 8 9 10 11 12 13 14 15 16 17 18 19 20 21 22 23 24 25 26 27 28 29 30 31 32 33 34 35 36 37 38 39 40 41 42 43 44 45 46 47 48 49 50
000
ASUS43 KMKX 240311
RWRWI

WISCONSIN REGIONAL WEATHER ROUNDUP
NATIONAL WEATHER SERVICE MILWAUKEE/SULLIVAN WI
1000 PM CDT SAT JUL 23 2016

NOTE: "FAIR" INDICATES FEW OR NO CLOUDS BELOW 12,000 FEET WITH NO
SIGNIFICANT WEATHER AND/OR OBSTRUCTIONS TO VISIBILITY.

WIZ001-002-006>008-014>016-023>028-240400-
NORTHWEST WISCONSIN

CITY           SKY/WX    TMP DP  RH WIND       PRES   REMARKS
SUPERIOR ARPT  CLOUDY    63  61  94 NE7       29.81F
ASHLAND        CLOUDY    70  67  90 CALM      29.83F
HAYWARD        CLOUDY    70  67  90 S5        29.84S
SIREN          CLOUDY    72  70  94 S6        29.82S
CUMBERLAND     CLOUDY    68  66  94 SE7       29.84S
RICE LAKE      CLOUDY    70  67  92 CALM      29.85S
CHETEK         CLOUDY    69  69  99 SE7       29.84S
LADYSMITH      CLOUDY    70  68  93 SE5       29.88S
EAU CLAIRE     CLEAR     69  69 100 E6        29.83R
MENOMONIE      CLEAR     70  69  99 E6        29.83S
NEW RICHMOND   PTCLDY    70  69  98 SE7       29.81F
OSCEOLA        CLEAR     71  71 100 SE6       29.82F
$$

WIZ003>005-009-010-017-018-240400-
NORTH CENTRAL WISCONSIN

CITY           SKY/WX    TMP DP  RH WIND       PRES   REMARKS
MANITOWISH WTR LGT RAIN  70  70 100 S7        29.89S
ARBOR VITAE    RAIN      72  70  94 S8        29.90S
WOODRUFF       RAIN      72  70  94 S8        29.90S
RHINELANDER    HVY RAIN  71  69  93 SW5       29.92R FOG
EAGLE RIVER    DRIZZLE   71  68  91 CALM      29.90F
LAND O LAKES   CLOUDY    71  67  88 SE3       29.91S
PHILLIPS       CLOUDY    68  68  99 S6        29.89R
TOMAHAWK       RAIN      67  66  94 SE3       29.90F
MEDFORD        CLOUDY    67  67 100 SE3       29.88S
MERRILL        HVY RAIN  69  69 100 E5        29.90R
$$

WIZ029-030-035-036-043>047-240400-
CENTRAL WISCONSIN

CITY           SKY/WX    TMP DP  RH WIND       PRES   REMARKS
WAUSAU         LGT RAIN  70  67  90 E6        29.87S
MOSINEE        LGT RAIN  70  68  94 SE6       29.89S
MARSHFIELD     MOCLDY    70  66  87 CALM      29.86F
STEVENS POINT  MOCLDY    69  69  97 SE7       29.88F
WAUPACA        CLOUDY    73  73  97 CALM      29.89F
WAUTOMA        CLOUDY    71  70  96 SE9       29.88F
WISC RAPIDS    CLOUDY    71  67  87 S5        29.88S
CAMP DOUGLAS   CLOUDY    71  70  96 SE7       29.85S
$$

WIZ011>013-019>022-031-037>040-048>050-240400-
NORTHEAST WISCONSIN

CITY           SKY/WX    TMP DP  RH WIND       PRES   REMARKS
ANTIGO         CLOUDY    71  70  99 SE6       29.91F
SHAWANO        CLOUDY    76  72  88 CALM      29.89F
OCONTO         CLOUDY    74  74 100 SE5       29.89S
STURGEON BAY   CLOUDY    73  66  78 SE8       29.91S
GREEN BAY      CLOUDY    75  75 100 S6        29.90R
MANITOWOC      CLOUDY    69  67  93 MISG      29.92S FOG
APPLETON       MOCLDY    73  70  88 VRB6      29.90S
CLINTONVILLE   CLOUDY    73  70  88 SE3       29.89S
OSHKOSH        CLOUDY    73  70  90 S9        29.90S
$$

WIZ032>034-041-042-053>061-240400-
SOUTHWEST WISCONSIN

CITY           SKY/WX    TMP DP  RH WIND       PRES   REMARKS
LA CROSSE      CLEAR     74  69  85 S8        29.82R
SPARTA         CLOUDY    70  68  94 CALM      29.85S
VIROQUA        CLEAR     69  69 100 SE10      29.86F
BOSCOBEL       CLOUDY    72  70  93 CALM      29.86S
PRAIRIE DU CHI CLOUDY    70  69  96 E5        29.84S
PLATTEVILLE    CLOUDY    71  71 100 E12       29.90R
$$

WIZ056-057-062-063-064-067-068-240400-
SOUTH CENTRAL WISCONSIN

CITY           SKY/WX    TMP DP  RH WIND       PRES   REMARKS
REEDSBURG      CLOUDY    71  71 100 SE3       29.87S
BARABOO/DELLS  CLOUDY    71  69  93 S5        29.88S
LONE ROCK      CLOUDY    71  70  96 E5        29.88S
MINERAL POINT  CLOUDY    72  70  94 SE9       29.91R
MADISON        CLOUDY    72  70  93 SE7       29.89F
MIDDLETON      CLOUDY    73  73 100 SE7       29.91R
WATERTOWN      LGT RAIN  70  70 100 SE7       29.92S
MONROE         LGT RAIN  70  68  94 SE7       29.93R
JANESVILLE     NOT AVBL
$$

WIZ051-052-058>065-066-070>072-240400-
SOUTHEAST WISCONSIN

CITY           SKY/WX    TMP DP  RH WIND       PRES   REMARKS
MILWAUKEE      TSTM      73  69  87 S9        29.94F
WAUKESHA       RAIN      68  66  94 S3        29.95F
MILWAUKEE/TIMM LGT RAIN  70  66  88 CALM      29.95F
RACINE         TSTM      72  69  90 S8        29.97F
BURLINGTON     LGT RAIN  71  70  96 S3        29.95S
KENOSHA        LGT RAIN  72  70  93 S13       29.96F
FOND DU LAC    CLOUDY    74  71  91 S8        29.91F
SHEBOYGAN      LGT RAIN  74  71  91 S10       29.92F
WEST BEND      LGT RAIN  70  68  94 S6        29.94F
JUNEAU         LGT RAIN  70  68  95 SE9       29.93S
$$

LSZ147-162-240400-
LAKE SUPERIOR

STATION/POSITION TIME  TEMP    WIND        PRES    WAVE
                       AIR SEA DIR/SP/G            HT/PER
                 (UTC) (F)     (DEG/KT/KT) (MB)    (FT/S)
W MID LAKE BUOY  0250   61 57   90/  8/ 10 1009.3F   2/ 4
DEVILS ISLAND    0300   62      80/ 10/ 12 1009.7F
PORT WING        0240   62      40/  7/ 10 1010.2S
SAXON HARBOR     0210   70      50/  2/  3 1009.8F
$$

LMZ867-665-643>646-240400-
LAKE MICHIGAN

STATION/POSITION TIME  TEMP    WIND        PRES    WAVE
                       AIR SEA DIR/SP/G            HT/PER
                 (UTC) (F)     (DEG/KT/KT) (MB)    (FT/S)
CHAMBERS ISLAND  0200   76     130/  4/  9 1012.2
S GREEN BAY BUOY 0230   74 75  140/ 10/ 12   N/A
N MID LAKE BUOY  0250   73 71  140/  8/  8 1012.4R   0
NORTHPORT PIER   0200   74     150/  5/  7 1012.9R
KEWAUNEE LAKESHO 0200   66                   N/A
SHEBOYGAN LAKESH 0300   75     190/ 11/ 12 1013.0F
PORT WASHINGTON  0240   69     190/  5/  7 1014.2S
MILWAUKEE LAKESH 0210   73     200/  8/ 11   N/A
S MID LAKE BUOY  0250   76 75  230/ 10/ 14 1014.4R   0
KENOSHA   LAKESH 0300   67     180/ 12/ 17 1014.6F
$$

TC  - TEMPERATURE IN CELSIUS
VSB - VISIBILITY IN STATUTE MILES
WCI - WIND CHILL INDEX
HX  - HEAT INDEX





USA.gov is the U.S. government's official web portal to all federal, state and local government web resources and services.